Starlink 33849

operational
NORAD ID: 63654 Int'l Des: 2025-083 Owner: SPXS Country: US Constellation: starlink
LEOCIRCULAR

About Starlink 33849

Description loading...

Live Position

Loading 3D Globe...

Upcoming Passes

Altitude History

Altitude vs Time

uPlot chart will show altitude changes over time

Two-Line Element Set

1 63654U 25083W 25353.64903329 .00023877 00000-0 87403-3 0 9998
2 63654 42.9947 97.4057 0000427 276.0613 84.0190 15.27593352 37825
Epoch: Dec 19, 2025 • Age: 12 hours

Current Status

Altitude 493.8 km
Velocity 7.62 km/s
Sub-Earth Point -37.70°S, 173.21°W
Launch Date Apr 25, 2025
Age 0.6 years
Type internet

Technical Details

Classification Payload
Mass 575.00 kg
Dry Mass 530.00 kg
Total Mass 575.00 kg
Length 0.30 m
Diameter 4.10 m
Span 29.00 m
Shape Box + pan
Manufacturer SPXS
Bus Type Starlink V2MO
Phase Status In Orbit
Owner/State SPXS/US

Large Constellations

Loading constellations...